Time,TemperatureF,DewpointF,PressureIn,WindDirection,WindDirectionDegrees,WindSpeedMPH,WindSpeedGustMPH,Humidity,HourlyPrecipIn,Conditions,Clouds,dailyrainin,SoftwareType,DateUTC
2013-06-29 00:00:00,52.0,32.0,-100.00,South,171,16.0,23.0,46,-99.99,,,-99.99,,2013-06-29 06:00:00,
2013-06-29 00:43:00,52.0,32.0,-100.00,South,171,16.0,23.0,46,-99.99,,,-99.99,,2013-06-29 06:43:00,
2013-06-29 00:53:00,52.0,32.0,-100.00,South,171,16.0,23.0,46,-99.99,,,-99.99,,2013-06-29 06:53:00,
2013-06-29 01:00:00,52.0,31.0,-100.00,South,172,17.0,22.0,44,-99.99,,,-99.99,,2013-06-29 07:00:00,
2013-06-29 01:43:00,52.0,31.0,-100.00,South,172,17.0,22.0,44,-99.99,,,-99.99,,2013-06-29 07:43:00,
2013-06-29 01:53:00,52.0,31.0,-100.00,South,172,17.0,22.0,44,-99.99,,,-99.99,,2013-06-29 07:53:00,
2013-06-29 02:00:00,51.0,32.0,-100.00,South,171,18.0,24.0,48,-99.99,,,-99.99,,2013-06-29 08:00:00,
2013-06-29 02:43:00,51.0,32.0,-100.00,South,171,18.0,24.0,48,-99.99,,,-99.99,,2013-06-29 08:43:00,
2013-06-29 02:52:00,51.0,32.0,-100.00,South,171,18.0,24.0,48,-99.99,,,-99.99,,2013-06-29 08:52:00,
2013-06-29 03:00:00,50.0,32.0,-100.00,SSE,160,14.0,21.0,49,-99.99,,,-99.99,,2013-06-29 09:00:00,
2013-06-29 03:42:00,50.0,32.0,-100.00,SSE,160,14.0,21.0,49,-99.99,,,-99.99,,2013-06-29 09:42:00,
2013-06-29 03:53:00,50.0,32.0,-100.00,SSE,160,14.0,21.0,49,-99.99,,,-99.99,,2013-06-29 09:53:00,
2013-06-29 04:00:00,51.0,31.0,-100.00,SE,143,11.0,14.0,45,-99.99,,,-99.99,,2013-06-29 10:00:00,
2013-06-29 04:43:00,51.0,31.0,-100.00,SE,143,11.0,14.0,45,-99.99,,,-99.99,,2013-06-29 10:43:00,
2013-06-29 04:53:00,51.0,31.0,-100.00,SE,143,11.0,14.0,45,-99.99,,,-99.99,,2013-06-29 10:53:00,
2013-06-29 05:00:00,52.0,30.0,-100.00,SE,140,10.0,13.0,43,-99.99,,,-99.99,,2013-06-29 11:00:00,
2013-06-29 05:43:00,52.0,30.0,-100.00,SE,140,10.0,13.0,43,-99.99,,,-99.99,,2013-06-29 11:43:00,
2013-06-29 05:53:00,52.0,30.0,-100.00,SE,140,10.0,13.0,43,-99.99,,,-99.99,,2013-06-29 11:53:00,
2013-06-29 06:00:00,52.0,30.0,-100.00,SE,138,10.0,13.0,42,-99.99,,,-99.99,,2013-06-29 12:00:00,
2013-06-29 06:43:00,52.0,30.0,-100.00,SE,138,10.0,13.0,42,-99.99,,,-99.99,,2013-06-29 12:43:00,
2013-06-29 06:53:00,52.0,30.0,-100.00,SE,138,10.0,13.0,42,-99.99,,,-99.99,,2013-06-29 12:53:00,
2013-06-29 07:00:00,52.0,29.0,-100.00,SE,133,7.0,11.0,41,-99.99,,,-99.99,,2013-06-29 13:00:00,
2013-06-29 07:43:00,52.0,29.0,-100.00,SE,133,7.0,11.0,41,-99.99,,,-99.99,,2013-06-29 13:43:00,
2013-06-29 07:53:00,52.0,29.0,-100.00,SE,133,7.0,11.0,41,-99.99,,,-99.99,,2013-06-29 13:53:00,
2013-06-29 08:00:00,53.0,29.0,-100.00,ESE,120,5.0,9.0,40,-99.99,,,-99.99,,2013-06-29 14:00:00,
2013-06-29 08:45:00,53.0,29.0,-100.00,ESE,120,5.0,9.0,40,-99.99,,,-99.99,,2013-06-29 14:45:00,
2013-06-29 08:53:00,53.0,29.0,-100.00,ESE,120,5.0,9.0,40,-99.99,,,-99.99,,2013-06-29 14:53:00,
2013-06-29 09:00:00,55.0,30.0,-100.00,North,350,10.0,16.0,38,-99.99,,,-99.99,,2013-06-29 15:00:00,
2013-06-29 09:42:00,55.0,30.0,-100.00,North,350,10.0,16.0,38,-99.99,,,-99.99,,2013-06-29 15:42:00,
2013-06-29 09:53:00,55.0,30.0,-100.00,North,350,10.0,16.0,38,-99.99,,,-99.99,,2013-06-29 15:53:00,
2013-06-29 10:00:00,56.0,31.0,-100.00,NNW,339,7.0,13.0,39,-99.99,,,-99.99,,2013-06-29 16:00:00,
2013-06-29 10:43:00,56.0,31.0,-100.00,NNW,339,7.0,13.0,39,-99.99,,,-99.99,,2013-06-29 16:43:00,
2013-06-29 10:53:00,56.0,31.0,-100.00,NNW,339,7.0,13.0,39,-99.99,,,-99.99,,2013-06-29 16:53:00,
2013-06-29 11:00:00,56.0,31.0,-100.00,NNW,339,9.0,15.0,38,-99.99,,,-99.99,,2013-06-29 17:00:00,
2013-06-29 11:42:00,56.0,31.0,-100.00,NNW,339,9.0,15.0,38,-99.99,,,-99.99,,2013-06-29 17:42:00,
2013-06-29 11:53:00,56.0,31.0,-100.00,NNW,339,9.0,15.0,38,-99.99,,,-99.99,,2013-06-29 17:53:00,
2013-06-29 12:00:00,58.0,31.0,-100.00,North,352,8.0,19.0,36,-99.99,,,-99.99,,2013-06-29 18:00:00,
2013-06-29 12:43:00,58.0,31.0,-100.00,North,352,8.0,19.0,36,-99.99,,,-99.99,,2013-06-29 18:43:00,
2013-06-29 12:53:00,58.0,31.0,-100.00,North,352,8.0,19.0,36,-99.99,,,-99.99,,2013-06-29 18:53:00,
2013-06-29 13:00:00,60.0,32.0,-100.00,NNW,336,12.0,25.0,35,-99.99,,,-99.99,,2013-06-29 19:00:00,
2013-06-29 13:43:00,60.0,32.0,-100.00,NNW,336,12.0,25.0,35,-99.99,,,-99.99,,2013-06-29 19:43:00,
2013-06-29 13:54:00,60.0,32.0,-100.00,NNW,336,12.0,25.0,35,-99.99,,,-99.99,,2013-06-29 19:54:00,
2013-06-29 14:00:00,60.0,33.0,-100.00,NNW,335,13.0,26.0,35,-99.99,,,-99.99,,2013-06-29 20:00:00,
2013-06-29 14:43:00,60.0,33.0,-100.00,NNW,335,13.0,26.0,35,-99.99,,,-99.99,,2013-06-29 20:43:00,
2013-06-29 14:52:00,60.0,33.0,-100.00,NNW,335,13.0,26.0,35,-99.99,,,-99.99,,2013-06-29 20:52:00,
2013-06-29 15:00:00,58.0,32.0,-100.00,NNW,332,15.0,31.0,37,-99.99,,,-99.99,,2013-06-29 21:00:00,
2013-06-29 15:42:00,58.0,32.0,-100.00,NNW,332,15.0,31.0,37,-99.99,,,-99.99,,2013-06-29 21:42:00,
2013-06-29 15:52:00,58.0,32.0,-100.00,NNW,332,15.0,31.0,37,-99.99,,,-99.99,,2013-06-29 21:52:00,
2013-06-29 16:00:00,60.0,31.0,-100.00,NNW,331,12.0,22.0,33,-99.99,,,-99.99,,2013-06-29 22:00:00,
2013-06-29 16:43:00,60.0,31.0,-100.00,NNW,331,12.0,22.0,33,-99.99,,,-99.99,,2013-06-29 22:43:00,
2013-06-29 16:53:00,60.0,31.0,-100.00,NNW,331,12.0,22.0,33,-99.99,,,-99.99,,2013-06-29 22:53:00,
2013-06-29 17:00:00,58.0,29.0,-100.00,WNW,298,10.0,37.0,33,-99.99,,,-99.99,,2013-06-29 23:00:00,
2013-06-29 17:43:00,58.0,29.0,-100.00,WNW,298,10.0,37.0,33,-99.99,,,-99.99,,2013-06-29 23:43:00,
2013-06-29 17:53:00,58.0,29.0,-100.00,WNW,298,10.0,37.0,33,-99.99,,,-99.99,,2013-06-29 23:53:00,
2013-06-29 18:00:00,59.0,33.0,-100.00,WSW,250,5.0,11.0,37,-99.99,,,-99.99,,2013-06-30 00:00:00,
2013-06-29 18:43:00,59.0,33.0,-100.00,WSW,250,5.0,11.0,37,-99.99,,,-99.99,,2013-06-30 00:43:00,
2013-06-29 18:52:00,59.0,33.0,-100.00,WSW,250,5.0,11.0,37,-99.99,,,-99.99,,2013-06-30 00:52:00,
2013-06-29 19:00:00,61.0,35.0,-100.00,WSW,257,6.0,17.0,38,-99.99,,,-99.99,,2013-06-30 01:00:00,
2013-06-29 19:44:00,61.0,35.0,-100.00,WSW,257,6.0,17.0,38,-99.99,,,-99.99,,2013-06-30 01:44:00,
2013-06-29 19:53:00,61.0,35.0,-100.00,WSW,257,6.0,17.0,38,-99.99,,,-99.99,,2013-06-30 01:53:00,
2013-06-29 20:00:00,56.0,32.0,-100.00,WNW,286,8.0,17.0,40,-99.99,,,-99.99,,2013-06-30 02:00:00,
2013-06-29 20:43:00,56.0,32.0,-100.00,WNW,286,8.0,17.0,40,-99.99,,,-99.99,,2013-06-30 02:43:00,
2013-06-29 20:53:00,56.0,32.0,-100.00,WNW,286,8.0,17.0,40,-99.99,,,-99.99,,2013-06-30 02:53:00,
2013-06-29 21:00:00,53.0,33.0,-100.00,ESE,107,10.0,19.0,47,-99.99,,,-99.99,,2013-06-30 03:00:00,
2013-06-29 21:43:00,53.0,33.0,-100.00,ESE,107,10.0,19.0,47,-99.99,,,-99.99,,2013-06-30 03:43:00,
2013-06-29 21:53:00,53.0,33.0,-100.00,ESE,107,10.0,19.0,47,-99.99,,,-99.99,,2013-06-30 03:53:00,
2013-06-29 22:00:00,52.0,34.0,-100.00,ESE,102,8.0,15.0,50,-99.99,,,-99.99,,2013-06-30 04:00:00,
2013-06-29 22:43:00,52.0,34.0,-100.00,ESE,102,8.0,15.0,50,-99.99,,,-99.99,,2013-06-30 04:43:00,
2013-06-29 22:53:00,52.0,34.0,-100.00,ESE,102,8.0,15.0,50,-99.99,,,-99.99,,2013-06-30 04:53:00,
2013-06-29 23:00:00,52.0,33.0,-100.00,East,91,5.0,12.0,47,-99.99,,,-99.99,,2013-06-30 05:00:00,
2013-06-29 23:43:00,52.0,33.0,-100.00,East,91,5.0,12.0,47,-99.99,,,-99.99,,2013-06-30 05:43:00,
2013-06-29 23:53:00,52.0,33.0,-100.00,East,91,5.0,12.0,47,-99.99,,,-99.99,,2013-06-30 05:53:00,